Location: Three Guys Observatory
(38.6418°N, 87.1521°W)
Time: 06:47:38
(UTC-05:00)

ISS - Visible Passes

Search period start: 27 February 2017 00:00
Search period end: 09 March 2017 00:00
Orbit: 399 x 408 km, 51.6° (Epoch: 27 February)

Date Brightness Start Highest point End Pass type
(mag) Time Alt. Az. Time Alt. Az. Time Alt. Az.
28 Feb -1.8 06:55:29 10° SSW 06:58:34 39° SE 07:01:41 10° ENE visible
01 Mar -0.7 06:03:42 10° S 06:06:10 20° SE 06:08:38 10° E visible
02 Mar -3.4 06:46:31 10° SW 06:49:48 78° NW 06:53:07 10° NE visible
03 Mar -2.6 05:55:35 24° SSW 05:57:15 50° SE 06:00:28 10° ENE visible
04 Mar -0.9 05:05:35 22° ESE 05:05:35 22° ESE 05:07:31 10° ENE visible
04 Mar -2.4 06:38:15 11° W 06:41:08 33° NNW 06:44:11 10° NE visible
05 Mar -3.3 05:48:05 56° WNW 05:48:27 62° NW 05:51:44 10° NE visible
06 Mar -0.8 04:57:47 22° ENE 04:57:47 22° ENE 04:59:06 10° ENE visible
06 Mar -1.5 06:30:25 11° WNW 06:32:33 19° NNW 06:35:01 10° NNE visible
07 Mar -2.0 05:40:00 28° NNW 05:40:00 28° NNW 05:42:40 10° NNE visible
08 Mar -0.4 04:49:30 15° NE 04:49:30 15° NE 04:50:13 10° NE visible
08 Mar -0.9 06:22:32 10° NW 06:24:04 13° NNW 06:25:36 10° NNE visible
